Back to catalog

NATO 4A

AliveCommunicationsGEO
NORAD 21047·PAYLOAD· XX

Launched Jan 8, 1991 from Cape Canaveral Space Force Station

Loading…

TLE

FreshSource: Space-Track

Epoch: Sep 14, 2026, 12:54 UTC

1 21047U 91001A   26257.53813738 -.00000218  00000-0  00000-0 0  9997
2 21047  13.0191 354.2549 0006746 229.4953 136.7715  0.98285832129007

Track NATO 4A in real time with AllMySat

Download on the App Store